WX2DX-2 Weather Reports


Display with metric or nautical units.
time (UTC)temp
F
wind
direction
speed
MPH
gust
MPH
rain 1hr
in
rain 24hr
in
rain mn
in
humidity
%
barometer
mb
20260503221542 56 200 8.0 15.0 0.00 0.00 0.00 42 1012.5
20260503220048 56 257 7.0 20.0 0.00 0.00 0.00 42 1012.6
20260503214540 57 254 7.0 15.0 0.00 0.00 0.00 39 1012.7
20260503213039 57 275 5.0 21.0 0.00 0.00 0.00 41 1012.6
20260503211537 57 315 6.0 11.0 0.00 0.00 0.00 40 1012.6
20260503210038 57 294 4.0 12.0 0.00 0.00 0.00 43 1012.6
20260503204537 56 235 7.0 19.0 0.00 0.00 0.00 40 1012.7
20260503203035 56 346 6.0 15.0 0.00 0.00 0.00 41 1012.7
20260503201534 57 316 5.0 21.0 0.00 0.00 0.00 40 1012.9
20260503200036 55 258 9.0 21.0 0.00 0.00 0.00 41 1013.1
20260503194632 56 267 9.0 19.0 0.00 0.00 0.00 41 1013.1
20260503193034 57 250 8.0 18.0 0.00 0.00 0.00 40 1013.4
20260503191527 56 275 8.0 22.0 0.00 0.00 0.00 42 1013.6
20260503190029 57 228 7.0 18.0 0.00 0.00 0.00 43 1013.8
20260503184524 54 319 5.0 17.0 0.00 0.00 0.00 43 1013.7
20260503183035 54 292 5.0 19.0 0.00 0.00 0.00 45 1014.1
20260503181522 55 265 7.0 21.0 0.00 0.00 0.00 45 1014.1
20260503180021 55 329 7.0 18.0 0.00 0.00 0.00 45 1014.1
20260503174520 55 226 7.0 16.0 0.00 0.00 0.00 44 1014.3
20260503173020 54 236 7.0 18.0 0.00 0.00 0.00 50 1014.3
20260503171517 55 299 5.0 14.0 0.00 0.00 0.00 44 1014.5
20260503081513 36 214 1.0 4.0 0.00 0.00 0.00 72 1014.5
20260503071510 35 274 1.0 8.0 0.00 0.00 0.00 72 1014.2
20260503060103 37 338 1.0 8.0 0.00 0.00 0.00 69 1014.2
20260503054603 37 332 1.0 9.0 0.00 0.02 0.00 68 1014.2
20260503053054 38 313 0.0 9.0 0.00 0.02 0.00 68 1014.3
20260503051551 38 281 1.0 4.0 0.00 0.02 0.00 67 1014.4
20260503050047 39 266 3.0 8.0 0.00 0.02 0.00 66 1014.4
20260503044550 39 315 3.0 10.0 0.00 0.03 0.00 65 1014.4
20260503043044 39 355 1.0 12.0 0.00 0.03 0.00 65 1014.3
20260503041547 40 251 5.0 9.0 0.00 0.03 0.00 64 1014.4
20260503040041 40 98 1.0 5.0 0.00 0.03 0.00 64 1014.3
20260503034545 40 218 2.0 8.0 0.00 0.14 0.03 65 1014.4
20260503033042 40 244 1.0 5.0 0.00 0.14 0.03 67 1014.5
20260503031547 40 237 3.0 7.0 0.00 0.14 0.03 66 1014.6
20260503030034 40 276 1.0 8.0 0.00 0.14 0.03 69 1014.7
20260503024534 41 273 4.0 10.0 0.00 0.15 0.03 68 1014.7
20260503023034 41 229 2.0 7.0 0.00 0.15 0.03 68 1014.8
20260503021533 41 238 4.0 8.0 0.00 0.15 0.03 69 1014.8
20260503020032 41 259 2.0 8.0 0.00 0.15 0.03 68 1014.7
20260503014539 41 225 2.0 9.0 0.00 0.15 0.03 69 1014.6
20260503013029 41 167 4.0 11.0 0.00 0.15 0.03 73 1014.5
20260503011530 40 282 2.0 7.0 0.00 0.15 0.03 78 1014.5
20260503010028 40 294 1.0 5.0 0.00 0.15 0.03 79 1014.4
20260503004527 41 259 1.0 5.0 0.00 0.17 0.03 77 1014.1
20260503003027 41 287 1.0 4.0 0.00 0.17 0.03 73 1013.9
20260503001526 42 272 2.0 9.0 0.00 0.17 0.03 76 1014.0
20260503000025 42 259 2.0 4.0 0.00 0.17 0.03 76 1014.0
20260502234525 42 263 3.0 9.0 0.00 0.17 0.03 75 1013.8
20260502233024 43 256 2.0 8.0 0.00 0.17 0.03 74 1013.7
20260502231524 43 250 1.0 5.0 0.00 0.17 0.03 74 1013.6
20260502230024 43 327 2.0 9.0 0.00 0.17 0.03 71 1013.6
20260502224523 44 301 2.0 7.0 0.00 0.17 0.03 72 1013.5
20260502223024 44 254 1.0 4.0 0.00 0.17 0.03 72 1013.4